| time (UTC) | temp F | wind direction | speed MPH | gust MPH | rain 1hr in | rain 24hr in | rain mn in | humidity % | barometer mb |
| 20260502163018 | 77 | 156 | 1.0 | 3.0 | 0.00 | 0.00 | 0.00 | 25 | |
| 20260502150109 | 79 | 151 | 1.0 | 8.0 | 0.00 | 0.00 | 0.00 | 24 | |
| 20260502140110 | 78 | 123 | 1.0 | 9.0 | 0.00 | 0.00 | 0.00 | 23 | |
| 20260502123021 | 76 | 103 | 2.0 | 7.0 | 0.00 | 0.00 | 0.00 | 29 | |
| 20260502113022 | 75 | 105 | 3.0 | 8.0 | 0.00 | 0.00 | 0.00 | 32 | |
| 20260502110053 | 73 | 99 | 2.0 | 9.0 | 0.00 | 0.00 | 0.00 | 33 | |
| 20260502103023 | 72 | 104 | 3.0 | 9.0 | 0.00 | 0.00 | 0.00 | 36 | |
| 20260502070057 | 58 | 105 | 1.0 | 6.0 | 0.00 | 0.00 | 0.00 | 60 | |
| 20260502063032 | 53 | 113 | 1.0 | 4.0 | 0.00 | 0.00 | 0.00 | 70 | |
| 20260502060058 | 47 | 115 | 1.0 | 4.0 | 0.00 | 0.00 | 0.00 | 78 | |
| 20260502053108 | 43 | 146 | 1.0 | 6.0 | 0.00 | 0.00 | 0.00 | 83 | |
| 20260502050059 | 40 | 169 | 1.0 | 4.0 | 0.00 | 0.00 | 0.00 | 89 | |
| 20260502043030 | 38 | 153 | 1.0 | 4.0 | 0.00 | 0.00 | 0.00 | 91 | |
| 20260502040100 | 39 | 166 | 1.0 | 4.0 | 0.00 | 0.00 | 0.00 | 90 | |
| 20260502033030 | 39 | 166 | 1.0 | 4.0 | 0.00 | 0.00 | 0.00 | 90 | |
| 20260502030101 | 40 | 156 | 1.0 | 7.0 | 0.00 | 0.00 | 0.00 | 89 | |
| 20260502023031 | 40 | 156 | 1.0 | 4.0 | 0.00 | 0.00 | 0.00 | 88 | |
| 20260502020122 | 41 | 161 | 2.0 | 6.0 | 0.00 | 0.00 | 0.00 | 87 | |
| 20260502013032 | 41 | 164 | 1.0 | 4.0 | 0.00 | 0.00 | 0.00 | 86 | |
| 20260502003032 | 42 | 140 | 1.0 | 4.0 | 0.00 | 0.00 | 0.00 | 83 | |
| 20260502000123 | 44 | 151 | 1.0 | 6.0 | 0.00 | 0.00 | 0.00 | 81 | |
| 20260501233053 | 45 | 149 | 1.0 | 3.0 | 0.00 | 0.00 | 0.00 | 79 | |
| 20260501223035 | 46 | 126 | 0.0 | 3.0 | 0.00 | 0.00 | 0.00 | 75 | |
| 20260501220105 | 48 | 141 | 0.0 | 3.0 | 0.00 | 0.00 | 0.00 | 73 | |
| 20260501213035 | 49 | 136 | 0.0 | 2.0 | 0.00 | 0.00 | 0.00 | 70 | |
| 20260501210106 | 49 | 130 | 0.0 | 3.0 | 0.00 | 0.00 | 0.00 | 69 | |
| 20260501203037 | 50 | 114 | 0.0 | 1.0 | 0.00 | 0.00 | 0.00 | 67 | |
| 20260501200106 | 51 | 121 | 0.0 | 1.0 | 0.00 | 0.00 | 0.00 | 66 | |
| 20260501193036 | 52 | 0.0 | 1.0 | 0.00 | 0.00 | 0.00 | 65 | ||
| 20260501190127 | 55 | 151 | 0.0 | 1.0 | 0.00 | 0.00 | 0.00 | 60 | |
| 20260501183036 | 58 | 151 | 0.0 | 1.0 | 0.00 | 0.00 | 0.00 | 53 | |
| 20260501180127 | 63 | 136 | 0.0 | 2.0 | 0.00 | 0.00 | 0.00 | 44 | |
| 20260501173057 | 65 | 0.0 | 2.0 | 0.00 | 0.00 | 0.00 | 40 | ||
| 20260501170107 | 68 | 122 | 1.0 | 6.0 | 0.00 | 0.00 | 0.00 | 35 |